Time,TemperatureF,DewpointF,PressureIn,WindDirection,WindDirectionDegrees,WindSpeedMPH,WindSpeedGustMPH,Humidity,HourlyPrecipIn,Conditions,Clouds,dailyrainin,SoftwareType,DateUTC
2013-05-28 00:01:00,61.6,55.7,30.18,NNE,31,0.0,0.0,81,0.00,,,0.00,LWC V2.00 B2112,2013-05-28 04:01:00,
2013-05-28 00:06:00,61.5,55.3,30.18,NNE,31,0.0,0.0,80,0.00,,,0.00,LWC V2.00 B2112,2013-05-28 04:06:00,
2013-05-28 00:11:00,61.5,55.3,30.17,NNE,31,0.0,0.0,80,0.00,,,0.00,LWC V2.00 B2112,2013-05-28 04:11:00,
2013-05-28 00:16:00,61.3,55.1,30.17,NNE,31,0.0,0.0,80,0.00,,,0.00,LWC V2.00 B2112,2013-05-28 04:16:00,
2013-05-28 00:21:00,61.3,55.1,30.17,NNE,31,0.0,0.0,80,0.00,,,0.00,LWC V2.00 B2112,2013-05-28 04:21:00,
2013-05-28 00:26:00,61.3,54.7,30.17,NNE,31,0.0,0.0,79,0.00,,,0.00,LWC V2.00 B2112,2013-05-28 04:26:00,
2013-05-28 00:31:00,61.3,54.7,30.17,NNE,31,0.0,0.0,79,0.00,,,0.00,LWC V2.00 B2112,2013-05-28 04:31:00,
2013-05-28 00:36:00,61.5,54.9,30.17,NNE,31,0.0,0.0,79,0.00,,,0.00,LWC V2.00 B2112,2013-05-28 04:36:00,
2013-05-28 00:41:00,61.5,54.9,30.17,NNE,31,0.0,0.0,79,0.00,,,0.00,LWC V2.00 B2112,2013-05-28 04:41:00,
2013-05-28 00:46:00,61.6,54.7,30.17,NNE,31,0.0,0.0,78,0.00,,,0.00,LWC V2.00 B2112,2013-05-28 04:46:00,
2013-05-28 00:51:00,61.6,54.7,30.17,NNE,31,0.0,0.0,78,0.00,,,0.00,LWC V2.00 B2112,2013-05-28 04:51:00,
2013-05-28 00:56:00,61.8,54.9,30.17,NNE,31,0.0,0.0,78,0.00,,,0.00,LWC V2.00 B2112,2013-05-28 04:56:00,
2013-05-28 01:01:00,61.8,54.9,30.17,NNE,31,0.0,0.0,78,0.00,,,0.00,LWC V2.00 B2112,2013-05-28 05:01:00,
2013-05-28 01:06:00,62.0,55.8,30.17,NNE,31,0.0,0.0,80,0.00,,,0.00,LWC V2.00 B2112,2013-05-28 05:06:00,
2013-05-28 01:11:00,62.0,55.8,30.17,NNE,31,0.0,0.0,80,0.00,,,0.00,LWC V2.00 B2112,2013-05-28 05:11:00,
2013-05-28 01:16:00,61.8,55.2,30.17,NNE,31,0.0,0.0,79,0.00,,,0.00,LWC V2.00 B2112,2013-05-28 05:16:00,
2013-05-28 01:21:00,61.6,55.0,30.17,NNE,31,0.0,0.0,79,0.00,,,0.00,LWC V2.00 B2112,2013-05-28 05:21:00,
2013-05-28 01:26:00,61.6,55.0,30.17,NNE,31,0.0,0.0,79,0.00,,,0.00,LWC V2.00 B2112,2013-05-28 05:26:00,
2013-05-28 01:31:00,61.6,55.4,30.17,NNE,31,0.0,0.0,80,0.00,,,0.00,LWC V2.00 B2112,2013-05-28 05:31:00,
2013-05-28 01:36:00,61.5,54.9,30.17,NNE,31,0.0,0.0,79,0.00,,,0.00,LWC V2.00 B2112,2013-05-28 05:36:00,
2013-05-28 01:41:00,61.5,54.9,30.16,NNE,31,0.0,0.0,79,0.00,,,0.00,LWC V2.00 B2112,2013-05-28 05:41:00,
2013-05-28 01:46:00,61.5,54.9,30.16,NNE,31,0.0,0.0,79,0.00,,,0.00,LWC V2.00 B2112,2013-05-28 05:46:00,
2013-05-28 01:51:00,61.5,54.9,30.16,NNE,31,0.0,0.0,79,0.00,,,0.00,LWC V2.00 B2112,2013-05-28 05:51:00,
2013-05-28 01:56:00,61.5,55.6,30.16,NNE,31,0.0,0.0,81,0.00,,,0.00,LWC V2.00 B2112,2013-05-28 05:56:00,
2013-05-28 02:01:00,61.5,55.6,30.16,NNE,31,0.0,0.0,81,0.00,,,0.00,LWC V2.00 B2112,2013-05-28 06:01:00,
2013-05-28 02:06:00,61.5,55.6,30.16,NNE,31,0.0,0.0,81,0.00,,,0.00,LWC V2.00 B2112,2013-05-28 06:06:00,
2013-05-28 02:11:00,61.5,55.9,30.15,NNE,31,0.0,0.0,82,0.00,,,0.00,LWC V2.00 B2112,2013-05-28 06:11:00,
2013-05-28 02:16:00,61.3,55.4,30.15,NNE,31,0.0,0.0,81,0.00,,,0.00,LWC V2.00 B2112,2013-05-28 06:16:00,
2013-05-28 02:21:00,61.2,55.7,30.15,NNE,31,0.0,0.0,82,0.00,,,0.00,LWC V2.00 B2112,2013-05-28 06:21:00,
2013-05-28 02:26:00,61.0,55.1,30.15,NNE,31,0.0,0.0,81,0.00,,,0.00,LWC V2.00 B2112,2013-05-28 06:26:00,
2013-05-28 02:31:00,60.9,55.4,30.15,NNE,31,0.0,0.0,82,0.00,,,0.00,LWC V2.00 B2112,2013-05-28 06:31:00,
2013-05-28 02:36:00,60.9,55.4,30.15,NNE,31,0.0,0.0,82,0.00,,,0.00,LWC V2.00 B2112,2013-05-28 06:36:00,
2013-05-28 02:41:00,60.7,55.2,30.15,NNE,31,0.0,0.0,82,0.00,,,0.00,LWC V2.00 B2112,2013-05-28 06:41:00,
2013-05-28 02:46:00,60.5,55.3,30.15,NNE,31,0.0,0.0,83,0.00,,,0.00,LWC V2.00 B2112,2013-05-28 06:46:00,
2013-05-28 02:51:00,60.5,55.3,30.15,NNE,31,0.0,0.0,83,0.00,,,0.00,LWC V2.00 B2112,2013-05-28 06:51:00,
2013-05-28 02:56:00,60.4,55.2,30.15,NNE,31,0.0,0.0,83,0.00,,,0.00,LWC V2.00 B2112,2013-05-28 06:56:00,
2013-05-28 03:01:00,60.2,55.3,30.15,NNE,31,0.0,0.0,84,0.00,,,0.00,LWC V2.00 B2112,2013-05-28 07:01:00,
2013-05-28 03:06:00,60.2,55.3,30.15,NNE,31,0.0,0.0,84,0.00,,,0.00,LWC V2.00 B2112,2013-05-28 07:06:00,
2013-05-28 03:11:00,60.1,55.2,30.15,NNE,31,0.0,0.0,84,0.00,,,0.00,LWC V2.00 B2112,2013-05-28 07:11:00,
2013-05-28 03:16:00,59.9,55.0,30.15,NNE,31,0.0,0.0,84,0.00,,,0.00,LWC V2.00 B2112,2013-05-28 07:16:00,
2013-05-28 03:21:00,59.8,55.3,30.15,NNE,31,0.0,0.0,85,0.00,,,0.00,LWC V2.00 B2112,2013-05-28 07:21:00,
2013-05-28 03:26:00,59.6,55.1,30.15,NNE,31,0.0,0.0,85,0.00,,,0.00,LWC V2.00 B2112,2013-05-28 07:26:00,
2013-05-28 03:31:00,59.5,55.0,30.15,NNE,31,0.0,0.0,85,0.00,,,0.00,LWC V2.00 B2112,2013-05-28 07:31:00,
2013-05-28 03:36:00,59.5,55.0,30.15,NNE,31,0.0,0.0,85,0.00,,,0.00,LWC V2.00 B2112,2013-05-28 07:36:00,
2013-05-28 03:41:00,59.3,55.1,30.14,NNE,31,0.0,0.0,86,0.00,,,0.00,LWC V2.00 B2112,2013-05-28 07:41:00,
2013-05-28 03:46:00,59.3,55.1,30.14,NNE,31,0.0,0.0,86,0.00,,,0.00,LWC V2.00 B2112,2013-05-28 07:46:00,
2013-05-28 03:51:00,59.2,55.0,30.14,NNE,31,0.0,0.0,86,0.00,,,0.00,LWC V2.00 B2112,2013-05-28 07:51:00,
2013-05-28 03:56:00,59.0,54.8,30.14,NNE,31,0.0,0.0,86,0.00,,,0.00,LWC V2.00 B2112,2013-05-28 07:56:00,
2013-05-28 04:01:00,59.0,54.8,30.14,NNE,31,0.0,0.0,86,0.00,,,0.00,LWC V2.00 B2112,2013-05-28 08:01:00,
2013-05-28 04:06:00,58.9,55.0,30.14,NNE,31,0.0,0.0,87,0.00,,,0.00,LWC V2.00 B2112,2013-05-28 08:06:00,
2013-05-28 04:11:00,58.9,55.0,30.15,NNE,31,0.0,0.0,87,0.00,,,0.00,LWC V2.00 B2112,2013-05-28 08:11:00,
2013-05-28 04:16:00,58.7,54.8,30.15,NNE,31,0.0,0.0,87,0.00,,,0.00,LWC V2.00 B2112,2013-05-28 08:16:00,
2013-05-28 04:21:00,58.7,54.8,30.15,NNE,31,0.0,0.0,87,0.00,,,0.00,LWC V2.00 B2112,2013-05-28 08:21:00,
2013-05-28 04:26:00,58.7,55.2,30.15,NNE,31,0.0,0.0,88,0.00,,,0.00,LWC V2.00 B2112,2013-05-28 08:26:00,
2013-05-28 04:31:00,58.6,55.1,30.15,NNE,31,0.0,0.0,88,0.00,,,0.00,LWC V2.00 B2112,2013-05-28 08:31:00,
2013-05-28 04:36:00,58.6,55.1,30.15,NNE,31,0.0,0.0,88,0.00,,,0.00,LWC V2.00 B2112,2013-05-28 08:36:00,
2013-05-28 04:41:00,58.6,55.1,30.15,NNE,31,0.0,0.0,88,0.00,,,0.00,LWC V2.00 B2112,2013-05-28 08:41:00,
2013-05-28 04:46:00,58.6,55.1,30.15,NNE,31,0.0,0.0,88,0.00,,,0.00,LWC V2.00 B2112,2013-05-28 08:46:00,
2013-05-28 04:51:00,58.6,55.1,30.15,NNE,31,0.0,0.0,88,0.00,,,0.00,LWC V2.00 B2112,2013-05-28 08:51:00,
2013-05-28 04:52:00,58.6,55.1,30.15,NNE,31,0.0,0.0,88,0.00,,,0.00,LWC V2.00 B2112,2013-05-28 08:52:00,
2013-05-28 04:57:00,58.6,55.1,30.15,NNE,31,0.0,0.0,88,0.00,,,0.00,LWC V2.00 B2112,2013-05-28 08:57:00,
2013-05-28 05:02:00,58.6,55.1,30.15,NNE,31,0.0,0.0,88,0.00,,,0.00,LWC V2.00 B2112,2013-05-28 09:02:00,
2013-05-28 05:07:00,58.6,55.1,30.15,NNE,31,0.0,0.0,88,0.00,,,0.00,LWC V2.00 B2112,2013-05-28 09:07:00,
2013-05-28 05:12:00,58.7,55.2,30.15,NNE,31,0.0,0.0,88,0.00,,,0.00,LWC V2.00 B2112,2013-05-28 09:12:00,
2013-05-28 05:17:00,58.7,55.2,30.15,NNE,31,0.0,0.0,88,0.00,,,0.00,LWC V2.00 B2112,2013-05-28 09:17:00,
2013-05-28 05:22:00,58.7,55.2,30.15,NNE,31,0.0,0.0,88,0.00,,,0.00,LWC V2.00 B2112,2013-05-28 09:22:00,
2013-05-28 05:27:00,58.7,55.2,30.15,NNE,31,0.0,0.0,88,0.00,,,0.00,LWC V2.00 B2112,2013-05-28 09:27:00,
2013-05-28 05:32:00,58.7,55.2,30.15,NNE,31,0.0,0.0,88,0.00,,,0.00,LWC V2.00 B2112,2013-05-28 09:32:00,
2013-05-28 05:37:00,58.7,55.5,30.15,NNE,31,0.0,0.0,89,0.00,,,0.00,LWC V2.00 B2112,2013-05-28 09:37:00,
2013-05-28 05:42:00,58.7,55.5,30.15,NNE,31,0.0,0.0,89,0.00,,,0.00,LWC V2.00 B2112,2013-05-28 09:42:00,
2013-05-28 05:47:00,58.7,55.5,30.15,NNE,31,0.0,0.0,89,0.00,,,0.00,LWC V2.00 B2112,2013-05-28 09:47:00,
2013-05-28 05:52:00,58.7,55.5,30.15,NNE,31,0.0,0.0,89,0.00,,,0.00,LWC V2.00 B2112,2013-05-28 09:52:00,
2013-05-28 05:57:00,58.7,55.5,30.16,NNE,31,0.0,0.0,89,0.00,,,0.00,LWC V2.00 B2112,2013-05-28 09:57:00,
2013-05-28 06:02:00,58.6,55.4,30.16,NNE,31,0.0,0.0,89,0.00,,,0.00,LWC V2.00 B2112,2013-05-28 10:02:00,
2013-05-28 06:07:00,58.6,55.4,30.16,NNE,14,0.0,0.0,89,0.00,,,0.00,LWC V2.00 B2112,2013-05-28 10:07:00,
2013-05-28 06:12:00,58.4,55.2,30.17,NNE,14,0.0,0.0,89,0.00,,,0.00,LWC V2.00 B2112,2013-05-28 10:12:00,
2013-05-28 06:17:00,58.4,55.2,30.17,NNE,14,0.0,0.0,89,0.00,,,0.00,LWC V2.00 B2112,2013-05-28 10:17:00,
2013-05-28 06:22:00,58.3,55.4,30.17,NNE,14,0.0,0.0,90,0.00,,,0.00,LWC V2.00 B2112,2013-05-28 10:22:00,
2013-05-28 06:27:00,58.3,55.4,30.17,NNE,14,0.0,0.0,90,0.00,,,0.00,LWC V2.00 B2112,2013-05-28 10:27:00,
2013-05-28 06:32:00,58.3,55.4,30.17,NNE,14,0.0,0.0,90,0.00,,,0.00,LWC V2.00 B2112,2013-05-28 10:32:00,
2013-05-28 06:37:00,58.1,55.2,30.17,NNE,14,0.0,0.0,90,0.00,,,0.00,LWC V2.00 B2112,2013-05-28 10:37:00,
2013-05-28 06:42:00,58.1,55.5,30.17,NNE,14,0.0,0.0,91,0.00,,,0.00,LWC V2.00 B2112,2013-05-28 10:42:00,
2013-05-28 06:47:00,58.1,55.5,30.17,NNE,14,0.0,0.0,91,0.00,,,0.00,LWC V2.00 B2112,2013-05-28 10:47:00,
2013-05-28 06:52:00,58.1,55.5,30.17,NNE,14,0.0,0.0,91,0.00,,,0.00,LWC V2.00 B2112,2013-05-28 10:52:00,
2013-05-28 06:57:00,58.1,55.5,30.18,NNE,14,0.0,0.0,91,0.00,,,0.00,LWC V2.00 B2112,2013-05-28 10:57:00,
2013-05-28 07:02:00,58.3,56.0,30.18,NNE,14,0.0,0.0,92,0.00,,,0.00,LWC V2.00 B2112,2013-05-28 11:02:00,
2013-05-28 07:07:00,58.3,56.0,30.18,NNE,14,0.0,0.0,92,0.00,,,0.00,LWC V2.00 B2112,2013-05-28 11:07:00,
2013-05-28 07:12:00,58.4,56.1,30.18,NNE,14,0.0,0.0,92,0.00,,,0.00,LWC V2.00 B2112,2013-05-28 11:12:00,
2013-05-28 07:17:00,58.4,56.1,30.18,NNE,14,0.0,0.0,92,0.00,,,0.00,LWC V2.00 B2112,2013-05-28 11:17:00,
2013-05-28 07:22:00,58.7,56.4,30.18,NNE,14,0.0,0.0,92,0.00,,,0.00,LWC V2.00 B2112,2013-05-28 11:22:00,
2013-05-28 07:27:00,58.7,56.4,30.20,NNE,14,0.0,0.0,92,0.00,,,0.00,LWC V2.00 B2112,2013-05-28 11:27:00,
2013-05-28 07:32:00,58.9,56.6,30.20,NNE,14,0.0,0.0,92,0.00,,,0.00,LWC V2.00 B2112,2013-05-28 11:32:00,
2013-05-28 07:37:00,59.0,56.7,30.20,NNE,14,0.0,0.0,92,0.00,,,0.00,LWC V2.00 B2112,2013-05-28 11:37:00,
2013-05-28 07:42:00,59.2,57.2,30.20,NNE,14,0.0,0.0,93,0.00,,,0.00,LWC V2.00 B2112,2013-05-28 11:42:00,
2013-05-28 07:47:00,59.5,57.5,30.20,NNE,14,0.0,0.0,93,0.00,,,0.00,LWC V2.00 B2112,2013-05-28 11:47:00,
2013-05-28 07:52:00,59.6,57.3,30.20,NNE,14,0.0,0.0,92,0.00,,,0.00,LWC V2.00 B2112,2013-05-28 11:52:00,
2013-05-28 07:57:00,59.8,57.8,30.20,NNE,14,0.0,0.0,93,0.00,,,0.00,LWC V2.00 B2112,2013-05-28 11:57:00,
2013-05-28 08:02:00,60.1,58.1,30.20,NNE,14,0.0,0.0,93,0.00,,,0.00,LWC V2.00 B2112,2013-05-28 12:02:00,
2013-05-28 08:07:00,60.4,58.4,30.20,NNE,14,0.0,0.0,93,0.00,,,0.00,LWC V2.00 B2112,2013-05-28 12:07:00,
2013-05-28 08:12:00,60.5,58.5,30.19,NNE,14,0.0,0.0,93,0.00,,,0.00,LWC V2.00 B2112,2013-05-28 12:12:00,
2013-05-28 08:17:00,60.9,58.9,30.19,NNE,14,0.0,0.0,93,0.00,,,0.00,LWC V2.00 B2112,2013-05-28 12:17:00,
2013-05-28 08:22:00,61.2,59.2,30.19,NNE,14,0.0,0.0,93,0.00,,,0.00,LWC V2.00 B2112,2013-05-28 12:22:00,
2013-05-28 08:27:00,61.5,59.5,30.20,NNE,14,0.0,0.0,93,0.00,,,0.00,LWC V2.00 B2112,2013-05-28 12:27:00,
2013-05-28 08:32:00,62.1,60.3,30.20,NNE,14,0.0,0.0,94,0.00,,,0.00,LWC V2.00 B2112,2013-05-28 12:32:00,
2013-05-28 08:37:00,62.6,60.5,30.20,NNW,327,0.0,0.0,93,0.00,,,0.00,LWC V2.00 B2112,2013-05-28 12:37:00,
2013-05-28 08:42:00,63.1,61.0,30.21,NNW,327,0.0,0.0,93,0.00,,,0.00,LWC V2.00 B2112,2013-05-28 12:42:00,
2013-05-28 08:47:00,63.5,61.4,30.21,NNW,327,0.0,0.0,93,0.00,,,0.00,LWC V2.00 B2112,2013-05-28 12:47:00,
2013-05-28 08:52:00,63.9,61.5,30.21,NNW,327,0.0,0.0,92,0.00,,,0.00,LWC V2.00 B2112,2013-05-28 12:52:00,
2013-05-28 08:57:00,64.0,61.6,30.21,NNW,327,0.0,0.0,92,0.00,,,0.00,LWC V2.00 B2112,2013-05-28 12:57:00,
2013-05-28 09:02:00,64.3,61.9,30.21,NNW,327,0.0,0.0,92,0.00,,,0.00,LWC V2.00 B2112,2013-05-28 13:02:00,
2013-05-28 09:07:00,64.7,62.3,30.21,NNW,327,0.0,0.0,92,0.00,,,0.00,LWC V2.00 B2112,2013-05-28 13:07:00,
2013-05-28 09:12:00,65.0,62.3,30.21,NNW,327,0.0,1.0,91,0.00,,,0.00,LWC V2.00 B2112,2013-05-28 13:12:00,
2013-05-28 09:17:00,65.3,62.6,30.21,NNW,327,0.0,0.0,91,0.00,,,0.00,LWC V2.00 B2112,2013-05-28 13:17:00,
2013-05-28 09:22:00,65.6,62.9,30.21,NNW,327,0.0,0.0,91,0.00,,,0.00,LWC V2.00 B2112,2013-05-28 13:22:00,
2013-05-28 09:27:00,66.1,63.1,30.21,NNW,327,0.0,1.0,90,0.00,,,0.00,LWC V2.00 B2112,2013-05-28 13:27:00,
2013-05-28 09:32:00,66.6,63.2,30.21,NNW,327,0.0,0.0,89,0.00,,,0.00,LWC V2.00 B2112,2013-05-28 13:32:00,
2013-05-28 09:37:00,67.1,63.4,30.21,NNW,327,0.0,1.0,88,0.00,,,0.00,LWC V2.00 B2112,2013-05-28 13:37:00,
2013-05-28 09:42:00,67.6,63.9,30.20,NNW,327,0.0,1.0,88,0.00,,,0.00,LWC V2.00 B2112,2013-05-28 13:42:00,
2013-05-28 09:47:00,68.3,64.3,30.20,NNW,327,0.0,0.0,87,0.00,,,0.00,LWC V2.00 B2112,2013-05-28 13:47:00,
2013-05-28 09:52:00,68.8,64.1,30.20,NNE,17,0.0,0.0,85,0.00,,,0.00,LWC V2.00 B2112,2013-05-28 13:52:00,
2013-05-28 09:57:00,69.4,63.7,30.20,ENE,62,0.0,0.0,82,0.00,,,0.00,LWC V2.00 B2112,2013-05-28 13:57:00,
2013-05-28 10:02:00,70.1,63.6,30.20,ENE,62,0.0,0.0,80,0.00,,,0.00,LWC V2.00 B2112,2013-05-28 14:02:00,
2013-05-28 10:07:00,70.4,63.6,30.20,ENE,62,0.0,0.0,79,0.00,,,0.00,LWC V2.00 B2112,2013-05-28 14:07:00,
2013-05-28 10:12:00,70.9,63.3,30.20,ENE,62,1.0,1.0,77,0.00,,,0.00,LWC V2.00 B2112,2013-05-28 14:12:00,
2013-05-28 10:17:00,71.6,63.2,30.20,ENE,62,0.0,0.0,75,0.00,,,0.00,LWC V2.00 B2112,2013-05-28 14:17:00,
2013-05-28 10:22:00,72.1,63.7,30.20,ENE,62,0.0,0.0,75,0.00,,,0.00,LWC V2.00 B2112,2013-05-28 14:22:00,
2013-05-28 10:27:00,72.5,63.7,30.19,ENE,62,0.0,0.0,74,0.00,,,0.00,LWC V2.00 B2112,2013-05-28 14:27:00,
2013-05-28 10:32:00,72.8,62.8,30.19,ENE,62,0.0,0.0,71,0.00,,,0.00,LWC V2.00 B2112,2013-05-28 14:32:00,
2013-05-28 10:37:00,73.2,62.0,30.19,ENE,65,0.0,3.0,68,0.00,,,0.00,LWC V2.00 B2112,2013-05-28 14:37:00,
2013-05-28 10:42:00,73.9,62.7,30.20,ENE,65,0.0,0.0,68,0.00,,,0.00,LWC V2.00 B2112,2013-05-28 14:42:00,
2013-05-28 10:47:00,74.4,61.4,30.20,NE,43,2.0,3.0,64,0.00,,,0.00,LWC V2.00 B2112,2013-05-28 14:47:00,
2013-05-28 10:52:00,75.3,61.4,30.20,NE,54,0.0,2.0,62,0.00,,,0.00,LWC V2.00 B2112,2013-05-28 14:52:00,
2013-05-28 10:57:00,76.0,62.5,30.20,NE,54,0.0,0.0,63,0.00,,,0.00,LWC V2.00 B2112,2013-05-28 14:57:00,
2013-05-28 11:02:00,76.1,63.0,30.20,NE,54,0.0,0.0,64,0.00,,,0.00,LWC V2.00 B2112,2013-05-28 15:02:00,
2013-05-28 11:07:00,76.0,62.5,30.20,NE,54,0.0,0.0,63,0.00,,,0.00,LWC V2.00 B2112,2013-05-28 15:07:00,
2013-05-28 11:12:00,76.0,63.8,30.21,NE,54,0.0,0.0,66,0.00,,,0.00,LWC V2.00 B2112,2013-05-28 15:12:00,
2013-05-28 11:17:00,75.6,63.4,30.21,NE,54,0.0,0.0,66,0.00,,,0.00,LWC V2.00 B2112,2013-05-28 15:17:00,
2013-05-28 11:22:00,75.4,63.7,30.21,NE,54,0.0,0.0,67,0.00,,,0.00,LWC V2.00 B2112,2013-05-28 15:22:00,
2013-05-28 11:27:00,75.3,63.6,30.20,NE,54,0.0,0.0,67,0.00,,,0.00,LWC V2.00 B2112,2013-05-28 15:27:00,
2013-05-28 11:32:00,75.1,63.8,30.20,NE,54,0.0,0.0,68,0.00,,,0.00,LWC V2.00 B2112,2013-05-28 15:32:00,
2013-05-28 11:37:00,75.1,63.8,30.20,NE,54,0.0,0.0,68,0.00,,,0.00,LWC V2.00 B2112,2013-05-28 15:37:00,
2013-05-28 11:42:00,74.9,63.2,30.21,NE,54,0.0,0.0,67,0.00,,,0.00,LWC V2.00 B2112,2013-05-28 15:42:00,
2013-05-28 11:43:00,74.9,63.2,30.21,NE,54,0.0,0.0,67,0.00,,,0.00,LWC V2.00 B2112,2013-05-28 15:43:00,
2013-05-28 11:48:00,74.9,63.6,30.21,NE,54,0.0,0.0,68,0.00,,,0.00,LWC V2.00 B2112,2013-05-28 15:48:00,
2013-05-28 11:53:00,75.3,64.0,30.21,NE,54,0.0,0.0,68,0.00,,,0.00,LWC V2.00 B2112,2013-05-28 15:53:00,
2013-05-28 11:58:00,75.6,64.3,30.20,NE,54,0.0,1.0,68,0.00,,,0.00,LWC V2.00 B2112,2013-05-28 15:58:00,
2013-05-28 12:03:00,76.1,62.6,30.20,NE,54,0.0,2.0,63,0.00,,,0.00,LWC V2.00 B2112,2013-05-28 16:03:00,
2013-05-28 12:08:00,76.5,62.5,30.20,NE,44,0.0,1.0,62,0.00,,,0.00,LWC V2.00 B2112,2013-05-28 16:08:00,
2013-05-28 12:13:00,76.8,62.8,30.19,NE,43,0.0,0.0,62,0.00,,,0.00,LWC V2.00 B2112,2013-05-28 16:13:00,
2013-05-28 12:18:00,77.2,62.7,30.19,NE,44,0.0,0.0,61,0.00,,,0.00,LWC V2.00 B2112,2013-05-28 16:18:00,
2013-05-28 12:23:00,77.4,64.2,30.19,NE,44,0.0,0.0,64,0.00,,,0.00,LWC V2.00 B2112,2013-05-28 16:23:00,
2013-05-28 12:28:00,77.4,62.9,30.19,NNE,25,1.0,1.0,61,0.00,,,0.00,LWC V2.00 B2112,2013-05-28 16:28:00,
2013-05-28 12:33:00,77.9,63.3,30.19,NNE,24,0.0,1.0,61,0.00,,,0.00,LWC V2.00 B2112,2013-05-28 16:33:00,
2013-05-28 12:38:00,78.5,64.4,30.19,NNE,19,0.0,1.0,62,0.00,,,0.00,LWC V2.00 B2112,2013-05-28 16:38:00,
2013-05-28 12:43:00,78.8,63.2,30.19,NNW,332,0.0,1.0,59,0.00,,,0.00,LWC V2.00 B2112,2013-05-28 16:43:00,
2013-05-28 12:48:00,79.2,63.6,30.19,NNW,332,0.0,1.0,59,0.00,,,0.00,LWC V2.00 B2112,2013-05-28 16:48:00,
2013-05-28 12:53:00,79.8,64.2,30.19,NNW,332,0.0,2.0,59,0.00,,,0.00,LWC V2.00 B2112,2013-05-28 16:53:00,
2013-05-28 12:58:00,80.3,64.2,30.18,NNW,332,0.0,1.0,58,0.00,,,0.00,LWC V2.00 B2112,2013-05-28 16:58:00,
2013-05-28 13:03:00,80.3,64.2,30.18,NNW,332,0.0,0.0,58,0.00,,,0.00,LWC V2.00 B2112,2013-05-28 17:03:00,
2013-05-28 13:08:00,80.3,64.2,30.18,NNW,333,0.0,1.0,58,0.00,,,0.00,LWC V2.00 B2112,2013-05-28 17:08:00,
2013-05-28 13:13:00,80.9,64.7,30.17,NNW,333,0.0,0.0,58,0.00,,,0.00,LWC V2.00 B2112,2013-05-28 17:13:00,
2013-05-28 13:18:00,80.9,63.7,30.17,NNW,333,0.0,0.0,56,0.00,,,0.00,LWC V2.00 B2112,2013-05-28 17:18:00,
2013-05-28 13:23:00,81.1,64.4,30.17,NNW,327,0.0,2.0,57,0.00,,,0.00,LWC V2.00 B2112,2013-05-28 17:23:00,
2013-05-28 13:28:00,81.1,64.4,30.16,NNW,335,0.0,1.0,57,0.00,,,0.00,LWC V2.00 B2112,2013-05-28 17:28:00,
2013-05-28 13:33:00,81.4,64.7,30.16,North,11,0.0,1.0,57,0.00,,,0.00,LWC V2.00 B2112,2013-05-28 17:33:00,
2013-05-28 13:38:00,81.4,65.2,30.16,North,11,0.0,1.0,58,0.00,,,0.00,LWC V2.00 B2112,2013-05-28 17:38:00,
2013-05-28 13:43:00,81.1,64.4,30.16,North,10,1.0,1.0,57,0.00,,,0.00,LWC V2.00 B2112,2013-05-28 17:43:00,
2013-05-28 13:48:00,81.1,64.9,30.16,North,10,0.0,1.0,58,0.00,,,0.00,LWC V2.00 B2112,2013-05-28 17:48:00,
2013-05-28 13:53:00,81.1,65.4,30.16,North,9,0.0,0.0,59,0.00,,,0.00,LWC V2.00 B2112,2013-05-28 17:53:00,
2013-05-28 13:58:00,81.4,65.2,30.15,NNE,22,0.0,2.0,58,0.00,,,0.00,LWC V2.00 B2112,2013-05-28 17:58:00,
2013-05-28 14:03:00,81.4,64.7,30.15,NW,321,0.0,1.0,57,0.00,,,0.00,LWC V2.00 B2112,2013-05-28 18:03:00,
2013-05-28 14:08:00,81.6,64.9,30.15,WNW,295,0.0,0.0,57,0.00,,,0.00,LWC V2.00 B2112,2013-05-28 18:08:00,
2013-05-28 14:13:00,81.6,65.9,30.15,WNW,295,0.0,1.0,59,0.00,,,0.00,LWC V2.00 B2112,2013-05-28 18:13:00,
2013-05-28 14:18:00,81.2,65.5,30.15,WNW,295,0.0,2.0,59,0.00,,,0.00,LWC V2.00 B2112,2013-05-28 18:18:00,
2013-05-28 14:23:00,81.4,64.7,30.15,WNW,295,0.0,0.0,57,0.00,,,0.00,LWC V2.00 B2112,2013-05-28 18:23:00,
2013-05-28 14:28:00,81.8,65.6,30.14,NW,316,0.0,0.0,58,0.00,,,0.00,LWC V2.00 B2112,2013-05-28 18:28:00,
2013-05-28 14:33:00,81.8,67.0,30.14,East,83,1.0,1.0,61,0.00,,,0.00,LWC V2.00 B2112,2013-05-28 18:33:00,
2013-05-28 14:38:00,82.0,65.2,30.14,SSW,207,0.0,1.0,57,0.00,,,0.00,LWC V2.00 B2112,2013-05-28 18:38:00,
2013-05-28 14:43:00,82.4,65.6,30.13,NE,36,0.0,3.0,57,0.00,,,0.00,LWC V2.00 B2112,2013-05-28 18:43:00,
2013-05-28 14:48:00,82.6,66.3,30.13,NE,37,0.0,1.0,58,0.00,,,0.00,LWC V2.00 B2112,2013-05-28 18:48:00,
2013-05-28 14:53:00,82.8,66.0,30.13,NNE,29,0.0,1.0,57,0.00,,,0.00,LWC V2.00 B2112,2013-05-28 18:53:00,
2013-05-28 14:58:00,82.6,64.8,30.13,NNE,18,0.0,0.0,55,0.00,,,0.00,LWC V2.00 B2112,2013-05-28 18:58:00,
2013-05-28 15:03:00,83.0,65.7,30.13,East,84,1.0,2.0,56,0.00,,,0.00,LWC V2.00 B2112,2013-05-28 19:03:00,
2013-05-28 15:08:00,83.4,65.5,30.13,East,84,0.0,1.0,55,0.00,,,0.00,LWC V2.00 B2112,2013-05-28 19:08:00,
2013-05-28 15:13:00,83.2,64.8,30.13,NNW,346,0.0,1.0,54,0.00,,,0.00,LWC V2.00 B2112,2013-05-28 19:13:00,
2013-05-28 15:18:00,83.2,64.8,30.13,North,0,0.0,0.0,54,0.00,,,0.00,LWC V2.00 B2112,2013-05-28 19:18:00,
2013-05-28 15:23:00,83.4,66.0,30.13,East,90,0.0,0.0,56,0.00,,,0.00,LWC V2.00 B2112,2013-05-28 19:23:00,
2013-05-28 15:28:00,83.0,65.7,30.13,East,90,0.0,1.0,56,0.00,,,0.00,LWC V2.00 B2112,2013-05-28 19:28:00,
2013-05-28 15:33:00,82.6,64.8,30.13,South,184,0.0,1.0,55,0.00,,,0.00,LWC V2.00 B2112,2013-05-28 19:33:00,
2013-05-28 15:38:00,82.2,65.4,30.13,South,184,0.0,0.0,57,0.00,,,0.00,LWC V2.00 B2112,2013-05-28 19:38:00,
2013-05-28 15:43:00,82.2,65.9,30.13,South,184,0.0,1.0,58,0.00,,,0.00,LWC V2.00 B2112,2013-05-28 19:43:00,
2013-05-28 15:48:00,82.0,64.7,30.13,South,184,0.0,0.0,56,0.00,,,0.00,LWC V2.00 B2112,2013-05-28 19:48:00,
2013-05-28 15:53:00,81.8,66.0,30.13,SSW,197,0.0,1.0,59,0.00,,,0.00,LWC V2.00 B2112,2013-05-28 19:53:00,
2013-05-28 15:58:00,81.8,64.5,30.13,SSW,201,0.0,2.0,56,0.00,,,0.00,LWC V2.00 B2112,2013-05-28 19:58:00,
2013-05-28 16:03:00,81.6,65.9,30.13,East,85,0.0,2.0,59,0.00,,,0.00,LWC V2.00 B2112,2013-05-28 20:03:00,
2013-05-28 16:08:00,81.4,65.7,30.13,East,85,0.0,1.0,59,0.00,,,0.00,LWC V2.00 B2112,2013-05-28 20:08:00,
2013-05-28 16:13:00,81.2,64.5,30.13,East,85,0.0,1.0,57,0.00,,,0.00,LWC V2.00 B2112,2013-05-28 20:13:00,
2013-05-28 16:18:00,81.1,64.9,30.13,East,85,0.0,0.0,58,0.00,,,0.00,LWC V2.00 B2112,2013-05-28 20:18:00,
2013-05-28 16:23:00,80.9,64.7,30.13,East,98,0.0,0.0,58,0.00,,,0.00,LWC V2.00 B2112,2013-05-28 20:23:00,
2013-05-28 16:28:00,80.5,65.3,30.13,East,98,0.0,0.0,60,0.00,,,0.00,LWC V2.00 B2112,2013-05-28 20:28:00,
2013-05-28 16:33:00,80.5,64.8,30.13,East,98,0.0,0.0,59,0.00,,,0.00,LWC V2.00 B2112,2013-05-28 20:33:00,
2013-05-28 16:38:00,80.7,66.0,30.13,East,99,0.0,0.0,61,0.00,,,0.00,LWC V2.00 B2112,2013-05-28 20:38:00,
2013-05-28 16:43:00,80.5,65.3,30.12,SW,231,0.0,1.0,60,0.00,,,0.00,LWC V2.00 B2112,2013-05-28 20:43:00,
2013-05-28 16:48:00,80.7,64.5,30.12,SW,231,0.0,0.0,58,0.00,,,0.00,LWC V2.00 B2112,2013-05-28 20:48:00,
2013-05-28 16:53:00,80.9,65.2,30.12,SW,231,0.0,0.0,59,0.00,,,0.00,LWC V2.00 B2112,2013-05-28 20:53:00,
2013-05-28 16:58:00,80.9,65.2,30.12,SW,231,0.0,0.0,59,0.00,,,0.00,LWC V2.00 B2112,2013-05-28 20:58:00,
2013-05-28 17:03:00,80.7,64.5,30.12,SW,231,0.0,1.0,58,0.00,,,0.00,LWC V2.00 B2112,2013-05-28 21:03:00,
2013-05-28 17:08:00,80.7,64.5,30.12,SW,231,0.0,0.0,58,0.00,,,0.00,LWC V2.00 B2112,2013-05-28 21:08:00,
2013-05-28 17:13:00,80.5,64.3,30.12,SW,231,0.0,0.0,58,0.00,,,0.00,LWC V2.00 B2112,2013-05-28 21:13:00,
2013-05-28 17:18:00,80.5,64.8,30.12,SW,231,0.0,0.0,59,0.00,,,0.00,LWC V2.00 B2112,2013-05-28 21:18:00,
2013-05-28 17:23:00,80.5,65.3,30.12,SW,231,0.0,0.0,60,0.00,,,0.00,LWC V2.00 B2112,2013-05-28 21:23:00,
2013-05-28 17:28:00,80.5,65.3,30.12,SW,231,0.0,0.0,60,0.00,,,0.00,LWC V2.00 B2112,2013-05-28 21:28:00,
2013-05-28 17:33:00,80.7,65.5,30.12,SW,231,0.0,1.0,60,0.00,,,0.00,LWC V2.00 B2112,2013-05-28 21:33:00,
2013-05-28 17:38:00,80.7,66.4,30.12,WNW,285,0.0,0.0,62,0.00,,,0.00,LWC V2.00 B2112,2013-05-28 21:38:00,
2013-05-28 17:43:00,80.7,66.0,30.11,WNW,285,0.0,0.0,61,0.00,,,0.00,LWC V2.00 B2112,2013-05-28 21:43:00,
2013-05-28 17:48:00,80.7,65.5,30.11,WNW,285,0.0,1.0,60,0.00,,,0.00,LWC V2.00 B2112,2013-05-28 21:48:00,
2013-05-28 17:53:00,80.9,65.2,30.11,NNE,19,0.0,1.0,59,0.00,,,0.00,LWC V2.00 B2112,2013-05-28 21:53:00,
2013-05-28 17:58:00,80.9,65.2,30.11,NNE,19,0.0,1.0,59,0.00,,,0.00,LWC V2.00 B2112,2013-05-28 21:58:00,
2013-05-28 18:03:00,80.9,64.7,30.11,NNE,19,0.0,0.0,58,0.00,,,0.00,LWC V2.00 B2112,2013-05-28 22:03:00,
2013-05-28 18:08:00,80.9,64.7,30.11,NNE,19,0.0,0.0,58,0.00,,,0.00,LWC V2.00 B2112,2013-05-28 22:08:00,
2013-05-28 18:13:00,80.9,64.7,30.11,NNE,19,0.0,0.0,58,0.00,,,0.00,LWC V2.00 B2112,2013-05-28 22:13:00,
2013-05-28 18:18:00,80.7,65.0,30.11,NNE,19,0.0,0.0,59,0.00,,,0.00,LWC V2.00 B2112,2013-05-28 22:18:00,
2013-05-28 18:23:00,80.7,65.0,30.11,NNE,13,0.0,1.0,59,0.00,,,0.00,LWC V2.00 B2112,2013-05-28 22:23:00,
2013-05-28 18:28:00,80.5,65.3,30.11,NNE,13,0.0,0.0,60,0.00,,,0.00,LWC V2.00 B2112,2013-05-28 22:28:00,
2013-05-28 18:33:00,80.3,64.6,30.11,NNE,13,0.0,0.0,59,0.00,,,0.00,LWC V2.00 B2112,2013-05-28 22:33:00,
2013-05-28 18:38:00,79.9,64.3,30.11,NNE,13,0.0,0.0,59,0.00,,,0.00,LWC V2.00 B2112,2013-05-28 22:38:00,
2013-05-28 18:43:00,79.8,64.7,30.10,NNE,13,0.0,1.0,60,0.00,,,0.00,LWC V2.00 B2112,2013-05-28 22:43:00,
2013-05-28 18:48:00,79.6,63.5,30.10,NW,326,0.0,0.0,58,0.00,,,0.00,LWC V2.00 B2112,2013-05-28 22:48:00,
2013-05-28 18:53:00,79.6,63.5,30.10,NW,326,0.0,0.0,58,0.00,,,0.00,LWC V2.00 B2112,2013-05-28 22:53:00,
2013-05-28 18:58:00,79.6,63.0,30.10,NW,326,0.0,0.0,57,0.00,,,0.00,LWC V2.00 B2112,2013-05-28 22:58:00,
2013-05-28 19:03:00,79.8,63.7,30.10,NW,326,0.0,0.0,58,0.00,,,0.00,LWC V2.00 B2112,2013-05-28 23:03:00,
2013-05-28 19:08:00,79.8,64.2,30.10,NW,326,0.0,0.0,59,0.00,,,0.00,LWC V2.00 B2112,2013-05-28 23:08:00,
2013-05-28 19:14:00,79.6,64.0,30.10,NW,326,0.0,0.0,59,0.00,,,0.00,LWC V2.00 B2112,2013-05-28 23:14:00,
2013-05-28 19:19:00,79.6,64.0,30.10,NW,326,0.0,0.0,59,0.00,,,0.00,LWC V2.00 B2112,2013-05-28 23:19:00,
2013-05-28 19:24:00,79.2,64.6,30.10,NW,326,0.0,0.0,61,0.00,,,0.00,LWC V2.00 B2112,2013-05-28 23:24:00,
2013-05-28 19:29:00,79.0,64.4,30.10,NW,326,0.0,0.0,61,0.00,,,0.00,LWC V2.00 B2112,2013-05-28 23:29:00,
2013-05-28 19:34:00,78.6,64.5,30.10,NW,326,0.0,0.0,62,0.00,,,0.00,LWC V2.00 B2112,2013-05-28 23:34:00,
2013-05-28 19:39:00,78.5,64.4,30.10,NW,326,0.0,0.0,62,0.00,,,0.00,LWC V2.00 B2112,2013-05-28 23:39:00,
2013-05-28 19:44:00,78.1,64.5,30.10,NW,326,0.0,0.0,63,0.00,,,0.00,LWC V2.00 B2112,2013-05-28 23:44:00,
2013-05-28 19:49:00,77.9,64.3,30.10,NW,326,0.0,0.0,63,0.00,,,0.00,LWC V2.00 B2112,2013-05-28 23:49:00,
2013-05-28 19:54:00,77.7,65.0,30.10,NW,326,0.0,0.0,65,0.00,,,0.00,LWC V2.00 B2112,2013-05-28 23:54:00,
2013-05-28 19:59:00,77.4,64.7,30.10,NW,326,0.0,0.0,65,0.00,,,0.00,LWC V2.00 B2112,2013-05-28 23:59:00,
2013-05-28 20:04:00,77.0,64.3,30.10,NW,326,0.0,0.0,65,0.00,,,0.00,LWC V2.00 B2112,2013-05-29 00:04:00,
2013-05-28 20:09:00,76.8,64.1,30.10,NW,326,0.0,0.0,65,0.00,,,0.00,LWC V2.00 B2112,2013-05-29 00:09:00,
2013-05-28 20:14:00,76.7,64.5,30.11,NW,326,0.0,0.0,66,0.00,,,0.00,LWC V2.00 B2112,2013-05-29 00:14:00,
2013-05-28 20:19:00,76.5,64.3,30.11,NW,326,0.0,0.0,66,0.00,,,0.00,LWC V2.00 B2112,2013-05-29 00:19:00,
2013-05-28 20:24:00,76.3,65.8,30.11,NW,326,0.0,0.0,70,0.00,,,0.00,LWC V2.00 B2112,2013-05-29 00:24:00,
2013-05-28 20:29:00,76.1,65.2,30.11,NW,326,0.0,0.0,69,0.00,,,0.00,LWC V2.00 B2112,2013-05-29 00:29:00,
2013-05-28 20:34:00,75.8,66.1,30.11,NW,326,0.0,0.0,72,0.00,,,0.00,LWC V2.00 B2112,2013-05-29 00:34:00,
2013-05-28 20:39:00,75.6,64.7,30.11,NW,326,0.0,0.0,69,0.00,,,0.00,LWC V2.00 B2112,2013-05-29 00:39:00,
2013-05-28 20:44:00,75.3,65.6,30.11,NW,326,0.0,0.0,72,0.00,,,0.00,LWC V2.00 B2112,2013-05-29 00:44:00,
2013-05-28 20:49:00,75.1,65.8,30.11,NW,326,0.0,0.0,73,0.00,,,0.00,LWC V2.00 B2112,2013-05-29 00:49:00,
2013-05-28 20:54:00,74.7,65.8,30.11,NW,326,0.0,0.0,74,0.00,,,0.00,LWC V2.00 B2112,2013-05-29 00:54:00,
2013-05-28 20:59:00,74.2,64.6,30.11,NW,326,0.0,0.0,72,0.00,,,0.00,LWC V2.00 B2112,2013-05-29 00:59:00,
2013-05-28 21:04:00,73.9,65.5,30.11,NW,326,0.0,0.0,75,0.00,,,0.00,LWC V2.00 B2112,2013-05-29 01:04:00,
2013-05-28 21:09:00,73.5,64.7,30.11,NW,326,0.0,0.0,74,0.00,,,0.00,LWC V2.00 B2112,2013-05-29 01:09:00,
2013-05-28 21:14:00,73.2,64.4,30.11,NW,326,0.0,0.0,74,0.00,,,0.00,LWC V2.00 B2112,2013-05-29 01:14:00,
2013-05-28 21:19:00,72.8,64.4,30.11,NW,326,0.0,0.0,75,0.00,,,0.00,LWC V2.00 B2112,2013-05-29 01:19:00,
2013-05-28 21:24:00,72.5,64.1,30.11,NW,326,0.0,0.0,75,0.00,,,0.00,LWC V2.00 B2112,2013-05-29 01:24:00,
2013-05-28 21:29:00,72.3,64.7,30.11,NW,326,0.0,0.0,77,0.00,,,0.00,LWC V2.00 B2112,2013-05-29 01:29:00,
2013-05-28 21:34:00,72.1,64.5,30.11,NW,326,0.0,0.0,77,0.00,,,0.00,LWC V2.00 B2112,2013-05-29 01:34:00,
2013-05-28 21:39:00,71.8,64.2,30.11,NW,326,0.0,0.0,77,0.00,,,0.00,LWC V2.00 B2112,2013-05-29 01:39:00,
2013-05-28 21:44:00,71.6,64.4,30.11,NW,326,0.0,0.0,78,0.00,,,0.00,LWC V2.00 B2112,2013-05-29 01:44:00,
2013-05-28 21:49:00,71.5,64.3,30.11,NW,326,0.0,0.0,78,0.00,,,0.00,LWC V2.00 B2112,2013-05-29 01:49:00,
2013-05-28 21:54:00,71.3,64.1,30.11,NW,326,0.0,0.0,78,0.00,,,0.00,LWC V2.00 B2112,2013-05-29 01:54:00,
2013-05-28 21:59:00,71.1,63.9,30.12,NW,326,0.0,0.0,78,0.00,,,0.00,LWC V2.00 B2112,2013-05-29 01:59:00,
2013-05-28 22:04:00,70.9,64.1,30.12,NW,326,0.0,0.0,79,0.00,,,0.00,LWC V2.00 B2112,2013-05-29 02:04:00,
2013-05-28 22:09:00,70.9,64.1,30.12,NW,326,0.0,0.0,79,0.00,,,0.00,LWC V2.00 B2112,2013-05-29 02:09:00,
2013-05-28 22:14:00,70.8,64.0,30.12,NW,326,0.0,0.0,79,0.00,,,0.00,LWC V2.00 B2112,2013-05-29 02:14:00,
2013-05-28 22:19:00,70.6,63.8,30.12,NW,326,0.0,0.0,79,0.00,,,0.00,LWC V2.00 B2112,2013-05-29 02:19:00,
2013-05-28 22:24:00,70.6,63.8,30.12,NW,326,0.0,0.0,79,0.00,,,0.00,LWC V2.00 B2112,2013-05-29 02:24:00,
2013-05-28 22:29:00,70.4,63.6,30.13,NW,326,0.0,0.0,79,0.00,,,0.00,LWC V2.00 B2112,2013-05-29 02:29:00,
2013-05-28 22:34:00,70.4,63.2,30.13,NW,326,0.0,0.0,78,0.00,,,0.00,LWC V2.00 B2112,2013-05-29 02:34:00,
2013-05-28 22:39:00,70.4,63.6,30.13,NW,326,0.0,0.0,79,0.00,,,0.00,LWC V2.00 B2112,2013-05-29 02:39:00,
2013-05-28 22:44:00,70.4,63.2,30.13,NW,326,0.0,0.0,78,0.00,,,0.00,LWC V2.00 B2112,2013-05-29 02:44:00,
2013-05-28 22:49:00,70.4,63.6,30.13,NW,326,0.0,0.0,79,0.00,,,0.00,LWC V2.00 B2112,2013-05-29 02:49:00,
2013-05-28 22:54:00,70.6,63.8,30.13,NW,326,0.0,0.0,79,0.00,,,0.00,LWC V2.00 B2112,2013-05-29 02:54:00,
2013-05-28 22:59:00,70.6,63.8,30.13,NW,326,0.0,0.0,79,0.00,,,0.00,LWC V2.00 B2112,2013-05-29 02:59:00,
2013-05-28 23:04:00,70.4,63.6,30.13,NW,326,0.0,0.0,79,0.00,,,0.00,LWC V2.00 B2112,2013-05-29 03:04:00,
2013-05-28 23:09:00,70.4,63.6,30.13,NW,326,0.0,0.0,79,0.00,,,0.00,LWC V2.00 B2112,2013-05-29 03:09:00,
2013-05-28 23:14:00,70.4,63.6,30.13,NW,326,0.0,0.0,79,0.00,,,0.00,LWC V2.00 B2112,2013-05-29 03:14:00,
2013-05-28 23:19:00,70.3,63.1,30.13,NW,326,0.0,0.0,78,0.00,,,0.00,LWC V2.00 B2112,2013-05-29 03:19:00,
2013-05-28 23:24:00,70.3,63.1,30.13,NW,326,0.0,0.0,78,0.00,,,0.00,LWC V2.00 B2112,2013-05-29 03:24:00,
2013-05-28 23:29:00,70.3,63.8,30.13,NW,326,0.0,1.0,80,0.00,,,0.00,LWC V2.00 B2112,2013-05-29 03:29:00,
2013-05-28 23:34:00,70.1,64.0,30.13,NW,326,0.0,0.0,81,0.00,,,0.00,LWC V2.00 B2112,2013-05-29 03:34:00,
2013-05-28 23:39:00,70.1,64.0,30.13,NW,326,0.0,0.0,81,0.00,,,0.00,LWC V2.00 B2112,2013-05-29 03:39:00,
2013-05-28 23:44:00,69.9,63.8,30.14,NW,326,0.0,0.0,81,0.00,,,0.00,LWC V2.00 B2112,2013-05-29 03:44:00,
2013-05-28 23:49:00,69.6,63.9,30.14,NNW,327,0.0,0.0,82,0.00,,,0.00,LWC V2.00 B2112,2013-05-29 03:49:00,
2013-05-28 23:54:00,69.4,63.3,30.14,NNW,327,0.0,0.0,81,0.00,,,0.00,LWC V2.00 B2112,2013-05-29 03:54:00,
2013-05-28 23:59:00,69.3,63.9,30.15,NNW,327,0.0,0.0,83,0.00,,,0.00,LWC V2.00 B2112,2013-05-29 03:59:00,